Time,TemperatureF,DewpointF,PressureIn,WindDirection,WindDirectionDegrees,WindSpeedMPH,WindSpeedGustMPH,Humidity,HourlyPrecipIn,Conditions,Clouds,dailyrainin,SoftwareType,DateUTC
2011-03-22 00:05:00,38.8,29.9,29.77,West,270,0.0,4.2,70,0.00,,,0.10,open2300-1.11,2011-03-22 06:05:00,
2011-03-22 00:15:00,38.5,28.8,29.76,WSW,247,0.9,3.4,68,0.00,,,0.10,open2300-1.11,2011-03-22 06:15:00,
2011-03-22 00:25:00,38.5,29.2,29.75,WSW,247,0.0,0.9,69,0.00,,,0.10,open2300-1.11,2011-03-22 06:25:00,
2011-03-22 00:35:00,38.8,29.9,29.76,WSW,247,0.0,0.0,70,0.00,,,0.10,open2300-1.11,2011-03-22 06:35:00,
2011-03-22 00:45:00,38.5,29.5,29.76,WSW,247,0.0,0.0,70,0.00,,,0.10,open2300-1.11,2011-03-22 06:45:00,
2011-03-22 00:55:00,38.5,29.9,29.76,ENE,67,0.0,0.0,71,0.00,,,0.10,open2300-1.11,2011-03-22 06:55:00,
2011-03-22 01:05:00,38.5,29.9,29.76,WNW,292,4.2,4.2,71,0.00,,,0.10,open2300-1.11,2011-03-22 07:05:00,
2011-03-22 01:15:00,38.3,29.7,29.76,WSW,247,0.0,4.2,71,0.00,,,0.10,open2300-1.11,2011-03-22 07:15:00,
2011-03-22 01:25:00,38.5,29.9,29.76,WNW,292,0.0,2.2,71,0.00,,,0.10,open2300-1.11,2011-03-22 07:25:00,
2011-03-22 01:35:00,38.3,29.7,29.75,West,270,0.4,4.7,71,0.00,,,0.10,open2300-1.11,2011-03-22 07:35:00,
2011-03-22 01:45:00,38.3,29.7,29.75,WSW,247,0.0,0.4,71,0.00,,,0.10,open2300-1.11,2011-03-22 07:45:00,
2011-03-22 01:55:00,38.3,29.7,29.76,WSW,247,0.0,6.9,71,0.00,,,0.10,open2300-1.11,2011-03-22 07:55:00,
2011-03-22 02:05:00,38.3,29.7,29.76,West,270,0.0,4.0,71,0.00,,,0.10,open2300-1.11,2011-03-22 08:05:00,
2011-03-22 02:15:00,38.3,29.7,29.76,WNW,292,0.0,0.0,71,0.00,,,0.10,open2300-1.11,2011-03-22 08:15:00,
2011-03-22 02:25:00,38.3,30.1,29.76,West,270,0.0,4.7,72,0.00,,,0.10,open2300-1.11,2011-03-22 08:25:00,
2011-03-22 02:35:00,38.3,29.7,29.76,WNW,292,0.0,4.5,71,0.00,,,0.10,open2300-1.11,2011-03-22 08:35:00,
2011-03-22 02:45:00,38.3,30.1,29.76,WNW,292,0.0,0.0,72,0.00,,,0.10,open2300-1.11,2011-03-22 08:45:00,
2011-03-22 02:55:00,38.5,29.9,29.76,WNW,292,1.6,1.6,71,0.00,,,0.10,open2300-1.11,2011-03-22 08:55:00,
2011-03-22 03:05:00,38.3,29.7,29.77,WSW,247,0.0,4.0,71,0.00,,,0.10,open2300-1.11,2011-03-22 09:05:00,
2011-03-22 03:15:00,38.3,29.7,29.76,WNW,292,1.1,5.4,71,0.00,,,0.10,open2300-1.11,2011-03-22 09:15:00,
2011-03-22 03:25:00,38.1,29.5,29.76,WSW,247,1.6,4.0,71,0.00,,,0.10,open2300-1.11,2011-03-22 09:25:00,
2011-03-22 03:35:00,37.9,29.4,29.76,WSW,247,3.1,6.7,71,0.00,,,0.10,open2300-1.11,2011-03-22 09:35:00,
2011-03-22 03:45:00,37.8,29.2,29.76,SW,225,0.0,7.4,71,0.00,,,0.10,open2300-1.11,2011-03-22 09:45:00,
2011-03-22 03:55:00,37.6,29.1,29.76,West,270,1.1,5.6,71,0.00,,,0.10,open2300-1.11,2011-03-22 09:55:00,
2011-03-22 04:05:00,37.4,29.5,29.76,WNW,292,0.0,6.3,73,0.00,,,0.10,open2300-1.11,2011-03-22 10:05:00,
2011-03-22 04:15:00,37.2,29.4,29.76,WNW,292,4.7,4.7,73,0.00,,,0.10,open2300-1.11,2011-03-22 10:15:00,
2011-03-22 04:25:00,37.2,29.4,29.76,WSW,247,3.4,4.7,73,0.00,,,0.10,open2300-1.11,2011-03-22 10:25:00,
2011-03-22 04:35:00,37.0,29.2,29.76,West,270,0.2,5.4,73,0.00,,,0.10,open2300-1.11,2011-03-22 10:35:00,
2011-03-22 04:45:00,36.9,29.0,29.76,WSW,247,5.6,7.8,73,0.00,,,0.10,open2300-1.11,2011-03-22 10:45:00,
2011-03-22 04:55:00,36.7,29.2,29.76,WNW,292,0.7,5.6,74,0.00,,,0.10,open2300-1.11,2011-03-22 10:55:00,
2011-03-22 05:05:00,36.7,29.2,29.76,WNW,292,0.0,3.8,74,0.00,,,0.10,open2300-1.11,2011-03-22 11:05:00,
2011-03-22 05:15:00,36.5,29.3,29.77,NW,315,3.1,5.4,75,0.00,,,0.10,open2300-1.11,2011-03-22 11:15:00,
2011-03-22 05:25:00,36.3,29.4,29.77,West,270,0.0,4.9,76,0.00,,,0.10,open2300-1.11,2011-03-22 11:25:00,
2011-03-22 05:35:00,35.8,29.2,29.78,WNW,292,0.0,2.0,77,0.00,,,0.10,open2300-1.11,2011-03-22 11:35:00,
2011-03-22 05:45:00,35.8,29.2,29.78,WNW,292,0.0,2.2,77,0.00,,,0.10,open2300-1.11,2011-03-22 11:45:00,
2011-03-22 05:55:00,35.8,29.2,29.79,WNW,292,0.0,1.8,77,0.00,,,0.10,open2300-1.11,2011-03-22 11:55:00,
2011-03-22 06:05:00,35.8,29.2,29.79,WNW,292,0.0,0.0,77,0.00,,,0.10,open2300-1.11,2011-03-22 12:05:00,
2011-03-22 06:15:00,35.4,28.9,29.79,WNW,292,0.0,0.0,77,0.00,,,0.10,open2300-1.11,2011-03-22 12:15:00,
2011-03-22 06:25:00,35.4,29.2,29.79,WNW,292,0.0,0.0,78,0.00,,,0.10,open2300-1.11,2011-03-22 12:25:00,
2011-03-22 06:35:00,35.4,29.2,29.79,WNW,292,1.1,1.6,78,0.00,,,0.10,open2300-1.11,2011-03-22 12:35:00,
2011-03-22 06:45:00,35.2,29.0,29.79,WNW,292,0.0,1.1,78,0.00,,,0.10,open2300-1.11,2011-03-22 12:45:00,
2011-03-22 06:55:00,35.2,29.0,29.79,WNW,292,0.9,0.9,78,0.00,,,0.10,open2300-1.11,2011-03-22 12:55:00,
2011-03-22 07:05:00,35.4,29.2,29.79,WNW,292,0.0,2.2,78,0.00,,,0.10,open2300-1.11,2011-03-22 13:05:00,
2011-03-22 07:15:00,35.4,28.9,29.80,WNW,292,0.0,0.0,77,0.00,,,0.10,open2300-1.11,2011-03-22 13:15:00,
2011-03-22 07:25:00,35.4,28.9,29.80,WNW,292,0.0,2.5,77,0.00,,,0.10,open2300-1.11,2011-03-22 13:25:00,
2011-03-22 07:35:00,35.4,29.2,29.81,WNW,292,0.0,0.7,78,0.00,,,0.10,open2300-1.11,2011-03-22 13:35:00,
2011-03-22 07:45:00,35.4,29.2,29.81,WNW,292,0.0,1.3,78,0.00,,,0.10,open2300-1.11,2011-03-22 13:45:00,
2011-03-22 07:55:00,35.4,29.2,29.81,WNW,292,0.0,2.5,78,0.00,,,0.10,open2300-1.11,2011-03-22 13:55:00,
2011-03-22 08:05:00,35.4,29.2,29.82,WNW,292,0.0,3.1,78,0.00,,,0.10,open2300-1.11,2011-03-22 14:05:00,
2011-03-22 08:15:00,35.4,29.2,29.83,WNW,292,0.0,2.5,78,0.00,,,0.10,open2300-1.11,2011-03-22 14:15:00,
2011-03-22 08:25:00,35.2,29.3,29.82,WNW,292,0.0,0.7,79,0.00,,,0.10,open2300-1.11,2011-03-22 14:25:00,
2011-03-22 08:35:00,35.4,29.5,29.83,WNW,292,0.0,0.0,79,0.00,,,0.10,open2300-1.11,2011-03-22 14:35:00,
2011-03-22 08:45:00,35.4,29.5,29.83,WNW,292,0.0,0.0,79,0.00,,,0.10,open2300-1.11,2011-03-22 14:45:00,
2011-03-22 08:55:00,35.8,30.2,29.83,WNW,292,0.0,1.6,80,0.00,,,0.10,open2300-1.11,2011-03-22 14:55:00,
2011-03-22 09:05:00,36.1,30.6,29.83,WNW,292,2.7,2.7,80,0.00,,,0.10,open2300-1.11,2011-03-22 15:05:00,
2011-03-22 09:15:00,36.3,30.7,29.84,NNW,337,0.0,2.7,80,0.00,,,0.10,open2300-1.11,2011-03-22 15:15:00,
2011-03-22 09:25:00,37.0,31.5,29.84,West,270,0.0,4.0,80,0.00,,,0.10,open2300-1.11,2011-03-22 15:25:00,
2011-03-22 09:35:00,37.2,31.3,29.84,West,270,0.0,5.4,79,0.00,,,0.10,open2300-1.11,2011-03-22 15:35:00,
2011-03-22 09:45:00,37.0,30.8,29.85,WSW,247,3.6,5.6,78,0.00,,,0.10,open2300-1.11,2011-03-22 15:45:00,
2011-03-22 09:55:00,37.2,30.7,29.85,WSW,247,5.6,5.6,77,0.02,,,0.12,open2300-1.11,2011-03-22 15:55:00,
2011-03-22 10:05:00,37.2,30.7,29.85,West,270,2.9,5.6,77,0.02,,,0.12,open2300-1.11,2011-03-22 16:05:00,
2011-03-22 10:15:00,37.9,31.7,29.85,West,270,1.8,5.4,78,0.02,,,0.12,open2300-1.11,2011-03-22 16:15:00,
2011-03-22 10:25:00,38.8,32.2,29.85,WSW,247,0.9,1.8,77,0.02,,,0.12,open2300-1.11,2011-03-22 16:25:00,
2011-03-22 10:35:00,38.8,31.6,29.85,West,270,1.3,5.6,75,0.02,,,0.12,open2300-1.11,2011-03-22 16:35:00,
2011-03-22 10:45:00,38.8,31.9,29.86,West,270,3.6,3.6,76,0.02,,,0.12,open2300-1.11,2011-03-22 16:45:00,
2011-03-22 10:55:00,39.0,32.1,29.86,West,270,1.1,6.5,76,0.00,,,0.12,open2300-1.11,2011-03-22 16:55:00,
2011-03-22 11:05:00,39.4,31.7,29.86,WSW,247,3.8,6.5,74,0.00,,,0.12,open2300-1.11,2011-03-22 17:05:00,
2011-03-22 11:15:00,39.4,31.4,29.86,WSW,247,4.2,6.5,73,0.00,,,0.12,open2300-1.11,2011-03-22 17:15:00,
2011-03-22 11:25:00,39.0,31.0,29.87,West,270,3.4,6.3,73,0.00,,,0.12,open2300-1.11,2011-03-22 17:25:00,
2011-03-22 11:35:00,39.6,32.2,29.87,WNW,292,0.0,5.1,75,0.00,,,0.12,open2300-1.11,2011-03-22 17:35:00,
2011-03-22 11:45:00,40.3,32.8,29.87,West,270,2.5,7.6,74,0.00,,,0.12,open2300-1.11,2011-03-22 17:45:00,
2011-03-22 11:55:00,40.3,31.9,29.87,WNW,292,6.0,6.0,72,0.00,,,0.12,open2300-1.11,2011-03-22 17:55:00,
2011-03-22 12:05:00,40.3,32.3,29.86,NNW,337,0.0,6.0,73,0.00,,,0.12,open2300-1.11,2011-03-22 18:05:00,
2011-03-22 12:15:00,40.1,32.1,29.87,SW,225,0.0,1.1,73,0.00,,,0.12,open2300-1.11,2011-03-22 18:15:00,
2011-03-22 12:25:00,40.1,32.1,29.87,NNW,337,2.2,4.5,73,0.00,,,0.12,open2300-1.11,2011-03-22 18:25:00,
2011-03-22 12:35:00,40.8,33.1,29.87,WNW,292,0.7,2.2,74,0.00,,,0.12,open2300-1.11,2011-03-22 18:35:00,
2011-03-22 12:45:00,41.7,33.0,29.87,WSW,247,5.1,6.0,71,0.00,,,0.12,open2300-1.11,2011-03-22 18:45:00,
2011-03-22 12:55:00,42.6,33.6,29.87,West,270,2.0,6.3,70,0.00,,,0.12,open2300-1.11,2011-03-22 18:55:00,
2011-03-22 13:05:00,43.0,32.8,29.87,WNW,292,2.5,6.0,67,0.00,,,0.12,open2300-1.11,2011-03-22 19:05:00,
2011-03-22 13:15:00,43.0,32.4,29.87,North,0,1.8,5.4,66,0.00,,,0.12,open2300-1.11,2011-03-22 19:15:00,
2011-03-22 13:25:00,42.6,32.0,29.87,West,270,5.8,5.8,66,0.00,,,0.12,open2300-1.11,2011-03-22 19:25:00,
2011-03-22 13:35:00,43.5,32.5,29.87,WSW,247,3.4,7.8,65,0.00,,,0.12,open2300-1.11,2011-03-22 19:35:00,
2011-03-22 13:45:00,45.3,33.4,29.86,SW,225,2.0,11.0,63,0.00,,,0.12,open2300-1.11,2011-03-22 19:45:00,
2011-03-22 13:55:00,46.6,33.8,29.86,WNW,292,4.0,9.4,61,0.00,,,0.12,open2300-1.11,2011-03-22 19:55:00,
2011-03-22 14:05:00,47.1,33.5,29.86,West,270,1.1,7.6,59,0.00,,,0.12,open2300-1.11,2011-03-22 20:05:00,
2011-03-22 14:15:00,47.8,32.8,29.85,WNW,292,5.8,5.8,56,0.00,,,0.12,open2300-1.11,2011-03-22 20:15:00,
2011-03-22 14:25:00,48.4,33.3,29.84,NW,315,2.0,9.4,56,0.00,,,0.12,open2300-1.11,2011-03-22 20:25:00,
2011-03-22 14:35:00,49.3,33.3,29.84,NW,315,4.5,5.4,54,0.00,,,0.12,open2300-1.11,2011-03-22 20:35:00,
2011-03-22 14:45:00,49.8,31.4,29.84,NW,315,3.4,4.5,49,0.00,,,0.12,open2300-1.11,2011-03-22 20:45:00,
2011-03-22 14:55:00,48.7,29.8,29.83,WNW,292,5.6,6.9,48,0.00,,,0.12,open2300-1.11,2011-03-22 20:55:00,
2011-03-22 15:05:00,48.0,29.1,29.83,WNW,292,1.6,5.6,48,0.00,,,0.12,open2300-1.11,2011-03-22 21:05:00,
2011-03-22 15:15:00,48.7,29.8,29.83,WNW,292,4.9,4.9,48,0.00,,,0.12,open2300-1.11,2011-03-22 21:15:00,
2011-03-22 15:25:00,48.6,28.6,29.83,West,270,3.4,4.9,46,0.00,,,0.12,open2300-1.11,2011-03-22 21:25:00,
2011-03-22 15:35:00,48.9,28.4,29.83,West,270,3.1,8.1,45,0.00,,,0.12,open2300-1.11,2011-03-22 21:35:00,
2011-03-22 15:45:00,50.4,28.6,29.83,West,270,1.3,6.0,43,0.00,,,0.12,open2300-1.11,2011-03-22 21:45:00,
2011-03-22 15:55:00,50.7,29.5,29.83,West,270,1.6,3.4,44,0.00,,,0.12,open2300-1.11,2011-03-22 21:55:00,
2011-03-22 16:05:00,49.8,28.1,29.83,WSW,247,0.0,4.0,43,0.00,,,0.12,open2300-1.11,2011-03-22 22:05:00,
2011-03-22 16:15:00,49.8,28.6,29.83,West,270,2.0,2.9,44,0.00,,,0.12,open2300-1.11,2011-03-22 22:15:00,
2011-03-22 16:25:00,50.5,28.2,29.82,West,270,0.0,4.7,42,0.00,,,0.12,open2300-1.11,2011-03-22 22:25:00,
2011-03-22 16:35:00,52.0,28.9,29.83,WSW,247,5.1,6.9,41,0.00,,,0.12,open2300-1.11,2011-03-22 22:35:00,
2011-03-22 16:45:00,52.0,28.9,29.82,WSW,247,0.7,5.6,41,0.00,,,0.12,open2300-1.11,2011-03-22 22:45:00,
2011-03-22 16:55:00,52.7,28.4,29.83,WNW,292,3.6,7.4,39,0.00,,,0.12,open2300-1.11,2011-03-22 22:55:00,
2011-03-22 17:05:00,52.9,28.5,29.83,SW,225,6.0,6.0,39,0.00,,,0.12,open2300-1.11,2011-03-22 23:05:00,
2011-03-22 17:15:00,54.0,28.1,29.83,WNW,292,6.0,6.0,37,0.00,,,0.12,open2300-1.11,2011-03-22 23:15:00,
2011-03-22 17:25:00,53.4,27.6,29.83,West,270,4.7,6.0,37,0.00,,,0.12,open2300-1.11,2011-03-22 23:25:00,
2011-03-22 17:35:00,53.4,26.3,29.83,NNW,337,7.4,7.4,35,0.00,,,0.12,open2300-1.11,2011-03-22 23:35:00,
2011-03-22 17:45:00,52.2,23.8,29.84,WSW,247,6.3,7.4,33,0.00,,,0.12,open2300-1.11,2011-03-22 23:45:00,
2011-03-22 17:55:00,50.5,24.4,29.83,WNW,292,6.5,6.5,36,0.00,,,0.12,open2300-1.11,2011-03-22 23:55:00,
2011-03-22 18:05:00,49.3,23.9,29.84,WNW,292,1.3,7.2,37,0.00,,,0.10,open2300-1.11,2011-03-23 00:05:00,
2011-03-22 18:15:00,48.6,24.0,29.84,West,270,2.5,4.5,38,0.00,,,0.10,open2300-1.11,2011-03-23 00:15:00,
2011-03-22 18:25:00,48.0,23.5,29.84,West,270,1.8,5.4,38,0.00,,,0.10,open2300-1.11,2011-03-23 00:25:00,
2011-03-22 18:35:00,47.7,23.2,29.84,WNW,292,2.0,6.3,38,0.00,,,0.10,open2300-1.11,2011-03-23 00:35:00,
2011-03-22 18:45:00,47.1,22.7,29.84,NW,315,2.5,6.3,38,0.00,,,0.10,open2300-1.11,2011-03-23 00:45:00,
2011-03-22 18:55:00,46.6,22.2,29.85,WSW,247,3.1,4.0,38,0.00,,,0.10,open2300-1.11,2011-03-23 00:55:00,
2011-03-22 19:05:00,46.0,23.0,29.85,West,270,1.1,4.2,40,0.00,,,0.10,open2300-1.11,2011-03-23 01:05:00,
2011-03-22 19:15:00,45.3,22.9,29.85,WNW,292,3.4,3.4,41,0.00,,,0.10,open2300-1.11,2011-03-23 01:15:00,
2011-03-22 19:25:00,45.0,22.6,29.85,WNW,292,0.0,3.4,41,0.00,,,0.10,open2300-1.11,2011-03-23 01:25:00,
2011-03-22 19:35:00,44.2,22.5,29.86,NNW,337,2.5,2.5,42,0.00,,,0.10,open2300-1.11,2011-03-23 01:35:00,
2011-03-22 19:45:00,43.7,22.0,29.86,NW,315,0.0,4.7,42,0.00,,,0.10,open2300-1.11,2011-03-23 01:45:00,
2011-03-22 19:55:00,43.3,22.2,29.86,NW,315,0.0,3.4,43,0.00,,,0.10,open2300-1.11,2011-03-23 01:55:00,
2011-03-22 20:05:00,43.0,22.4,29.86,NW,315,0.0,2.0,44,0.00,,,0.06,open2300-1.11,2011-03-23 02:05:00,
2011-03-22 20:15:00,42.4,21.9,29.87,NW,315,0.0,0.0,44,0.00,,,0.06,open2300-1.11,2011-03-23 02:15:00,
2011-03-22 20:25:00,41.7,21.8,29.87,NW,315,0.0,0.0,45,0.00,,,0.06,open2300-1.11,2011-03-23 02:25:00,
2011-03-22 20:35:00,41.2,21.8,29.87,NW,315,0.0,0.0,46,0.00,,,0.06,open2300-1.11,2011-03-23 02:35:00,
2011-03-22 20:45:00,40.3,21.5,29.88,NW,315,0.0,0.0,47,0.00,,,0.06,open2300-1.11,2011-03-23 02:45:00,
2011-03-22 20:55:00,39.7,21.0,29.88,NW,315,0.0,0.0,47,0.00,,,0.06,open2300-1.11,2011-03-23 02:55:00,
2011-03-22 21:05:00,39.0,20.9,29.88,NW,315,0.0,0.0,48,0.00,,,0.04,open2300-1.11,2011-03-23 03:05:00,
2011-03-22 21:15:00,38.7,21.6,29.89,NW,315,0.0,0.0,50,0.00,,,0.04,open2300-1.11,2011-03-23 03:15:00,
2011-03-22 21:25:00,37.9,21.0,29.89,NW,315,0.0,0.0,50,0.00,,,0.04,open2300-1.11,2011-03-23 03:25:00,
2011-03-22 21:35:00,37.2,20.8,29.89,NW,315,0.0,0.0,51,0.00,,,0.04,open2300-1.11,2011-03-23 03:35:00,
2011-03-22 21:45:00,36.9,20.9,29.89,NW,315,0.0,0.0,52,0.00,,,0.04,open2300-1.11,2011-03-23 03:45:00,
2011-03-22 21:55:00,36.3,20.4,29.90,NW,315,0.0,0.0,52,0.00,,,0.04,open2300-1.11,2011-03-23 03:55:00,
2011-03-22 22:05:00,35.4,20.0,29.90,NW,315,0.0,0.0,53,0.00,,,0.02,open2300-1.11,2011-03-23 04:05:00,
2011-03-22 22:15:00,34.9,19.9,29.90,NW,315,0.0,0.0,54,0.00,,,0.02,open2300-1.11,2011-03-23 04:15:00,
2011-03-22 22:25:00,34.7,20.1,29.90,NW,315,0.0,0.0,55,0.00,,,0.02,open2300-1.11,2011-03-23 04:25:00,
2011-03-22 22:35:00,34.3,19.8,29.91,NW,315,0.0,0.0,55,0.00,,,0.02,open2300-1.11,2011-03-23 04:35:00,
2011-03-22 22:45:00,34.0,19.8,29.91,NW,315,0.0,0.0,56,0.00,,,0.02,open2300-1.11,2011-03-23 04:45:00,
2011-03-22 22:55:00,33.8,20.1,29.91,NE,45,0.0,0.0,57,0.00,,,0.02,open2300-1.11,2011-03-23 04:55:00,
2011-03-22 23:05:00,33.6,20.4,29.92,SSE,157,0.0,0.7,58,0.00,,,0.02,open2300-1.11,2011-03-23 05:05:00,
2011-03-22 23:15:00,33.4,20.6,29.92,SSE,157,0.0,0.0,59,0.00,,,0.02,open2300-1.11,2011-03-23 05:15:00,
2011-03-22 23:25:00,33.4,20.6,29.92,SSE,157,0.0,0.0,59,0.00,,,0.02,open2300-1.11,2011-03-23 05:25:00,
2011-03-22 23:35:00,33.1,20.3,29.92,SSE,157,0.0,0.0,59,0.00,,,0.02,open2300-1.11,2011-03-23 05:35:00,
2011-03-22 23:45:00,32.5,19.8,29.92,SSE,157,0.0,0.0,59,0.00,,,0.02,open2300-1.11,2011-03-23 05:45:00,
2011-03-22 23:55:00,31.8,19.1,29.92,SSE,157,0.0,0.0,59,0.00,,,0.02,open2300-1.11,2011-03-23 05:55:00,